Regional Weather Roundup
Issued by NWS

Home | Current Version | Previous Version | Graphics & Text | Print | Product List | Glossary On
Versions: 1 2 3 4 5 6 7 8 9 10 11 12 13 14 15 16 17 18 19 20 21 22 23 24 25 26 27 28 29 30 31 32 33 34 35 36 37 38 39 40 41 42 43 44 45 46 47 48 49 50
000
ASUS45 KPSR 032010
RWRAZ

ARIZONA HOURLY REGIONAL WEATHER ROUNDUP
NATIONAL WEATHER SERVICE PHOENIX AZ
100 PM MST SAT DEC 03 2016

NOTE: FAIR INDICATES FEW OR NO CLOUDS BELOW 12,000 FEET WITH NO
SIGNIFICANT WEATHER AND/OR OBSTRUCTIONS TO VISIBILITY.

AZZ001>003-036-032100-
NORTHWEST ARIZONA

CITY           SKY/WX    TMP DP  RH WIND       PRES   REMARKS
BULLHEAD CITY  SUNNY     57  18  21 N29G35    30.13F
KINGMAN        SUNNY     49  10  20 N15G22    30.12F
$$

AZZ004>008-015-016-018-032100-
NORTH CENTRAL ARIZONA

CITY           SKY/WX    TMP DP  RH WIND       PRES   REMARKS
GRAND CANYON   SUNNY     36  13  38 NE13      30.13F WCI  27
PRESCOTT       SUNNY     48  19  31 N5        30.05F
FLAGSTAFF      SUNNY     39  19  44 E13G18    30.07F WCI  31
PAYSON         SUNNY     52  19  28 NE12G17   30.05S
PAGE           SUNNY     42   9  25 CALM      30.16F
$$

AZZ009>014-017-032100-
NORTHEAST ARIZONA

CITY           SKY/WX    TMP DP  RH WIND       PRES   REMARKS
WINSLOW        SUNNY     44  20  38 NW14      30.12F
SAINT JOHNS    SUNNY     44  26  49 VRB5      30.05F
SHOW LOW       SUNNY     37  23  56 N15       30.07F WCI  28
$$

AZZ023-032100-
GREATER PHOENIX AREA

CITY           SKY/WX    TMP DP  RH WIND       PRES   REMARKS
PHOENIX        MOSUNNY   65  24  21 N6        29.95F
BUCKEYE        SUNNY     64  21  19 N12G17    29.99F
GLENDALE       SUNNY     66  25  20 N3        29.97F
LUKE AFB       SUNNY     68  26  20 NW8       29.95F
DEER VALLEY    SUNNY     65  23  20 CALM      29.95F
SCOTTSDALE     SUNNY     66  22  18 NW6       29.97F
MESA-FALCON    SUNNY    N/A N/A N/A N14       29.93F
MESA-GATEWAY   SUNNY     64  25  22 N21       29.94F
CHANDLER       SUNNY     64  25  22 NW15      29.95S
$$

AZZ027-028-032100-
SOUTHWEST MARICOPA COUNTY AND PINAL COUNTY

CITY           SKY/WX    TMP DP  RH WIND       PRES   REMARKS
CASA GRANDE    NOT AVBL
GILA BEND      SUNNY     61  27  27 NW7       29.98F
$$

AZZ503-504-507>509-032100-
SOUTHEAST ARIZONA

CITY           SKY/WX    TMP DP  RH WIND       PRES   REMARKS
TUCSON         SUNNY     60  27  28 NW9       29.93F
DAVIS-MONTHAN  SUNNY     59  29  31 NW13      29.91F
NOGALES        PTSUNNY   57  36  45 E7        29.90F
SIERRA VISTA   CLOUDY    52  36  55 SE3       29.94F
DOUGLAS        CLOUDY    49  38  65 E13       29.93F
SAFFORD        MOSUNNY   59  35  40 SE8       29.92F
$$

AZZ020-021-025-026-031-032100-
SOUTHWEST ARIZONA

CITY           SKY/WX    TMP DP  RH WIND       PRES   REMARKS
YUMA           SUNNY     65  15  14 N16G26    30.03F
$$

CAZ031-033-041-043-047-048-061-032100-
SOUTHERN CALIFORNIA

CITY           SKY/WX    TMP DP  RH WIND       PRES   REMARKS
DOWNTOWN L.A.  SUNNY     66  18  15 VRB3      30.09F
L.A. AIRPORT   SUNNY     65  24  21 VRB5      30.09F
SAN DIEGO      SUNNY     65  25  22 NW8       30.09F
BURBANK        SUNNY     63  12  13 SE10      30.09F
ONTARIO        SUNNY     64   8  11 W9        30.09F
RIVERSIDE      SUNNY     66  12  12 E8        30.08F
PALM SPRINGS   SUNNY     68   2   7 SE10      30.11F
EL CENTRO NAS  SUNNY     66  13  12 N22G31    30.11F
IMPERIAL       SUNNY     66  21  18 N22G33    30.07F
BLYTHE         PTSUNNY   65  12  12 N23G32    30.06F
NEEDLES        SUNNY     62  14  15 N26G37    30.10F
$$

NVZ020-UTZ003-032100-
SOUTHERN NEVADA-UTAH

CITY           SKY/WX    TMP DP  RH WIND       PRES   REMARKS
LAS VEGAS      MOSUNNY   54   5  14 NE9       30.19F
SALT LAKE CITY CLOUDY    33  21  61 SE7       30.28F WCI  27
$$

NMZ009-TXZ055-032100-
NEW MEXICO-WEST TEXAS

CITY           SKY/WX    TMP DP  RH WIND       PRES   REMARKS
ALBUQUERQUE    MOSUNNY   45  27  49 N5        30.02F
EL PASO        CLOUDY    43  37  79 N16       29.95F
$$


........................KEY........................
SKY/WX - SKY CONDITION/WEATHER
TMP    - TEMPERATURE IN FAHRENHEIT
DP     - DEW POINT IN FAHRENHEIT
RH     - RELATIVE HUMIDITY IN PERCENT
WIND   - DIRECTION AND SPEED IN MILES PER HOUR (MPH)
VRB    - VARIABLE WIND DIRECTION
PRES   - MEAN SEA LEVEL PRESSURE IN INCHES OF MERCURY
         F - FALLING PRESSURE   R - RISING PRESSURE
         S - STEADY PRESSURE
VSB    - VISIBILITY IN MILES
HX     - HEAT INDEX IN FAHRENHEIT
WCI    - WIND CHILL INDEX IN FAHRENHEIT
TC     - TEMPERATURE IN CELSIUS WHICH IS ALSO KNOWN AS
         TEMPERATURE IN CENTIGRADE
AFB    - AIR FORCE BASE
         LUKE AFB IS LUKE AIR FORCE BASE
         DAVIS-MONTHAN IS DAVIS-MONTHAN AIR FORCE BASE
NAS    - NAVAL AIR STATION
         EL CENTRO NAS IS EL CENTRO NAVAL AIR STATION
N/A    - NOT AVAILABLE




USA.gov is the U.S. government's official web portal to all federal, state and local government web resources and services.